FW8149 Weather Reports


Display with metric or nautical units.
time (UTC)temp
F
wind
direction
speed
MPH
gust
MPH
rain 1hr
in
rain 24hr
in
rain mn
in
humidity
%
barometer
mb
20260506084041 54 244 2.0 6.0 0.00 0.00 0.00 64 1013.4
20260506083540 54 355 2.0 6.0 0.00 0.00 0.00 66 1013.4
20260506083039 53 15 0.0 0.0 0.00 0.00 0.00 67 1013.4
20260506082540 53 360 0.0 0.0 0.00 0.00 0.00 67 1013.3
20260506082036 53 42 0.0 0.0 0.00 0.00 0.00 66 1013.3
20260506081541 52 17 0.0 0.0 0.00 0.00 0.00 67 1013.3
20260506081034 52 46 0.0 0.0 0.00 0.00 0.00 68 1013.4
20260506080535 52 27 0.0 6.0 0.00 0.00 0.00 70 1013.4
20260506073030 50 104 1.0 5.0 0.00 0.00 0.00 74 1013.4
20260506072530 50 57 1.0 8.0 0.00 0.00 0.00 74 1013.5
20260506072030 50 56 2.0 8.0 0.00 0.00 0.00 75 1013.5
20260506071529 49 42 1.0 7.0 0.00 0.00 0.00 75 1013.4
20260506071028 49 71 2.0 9.0 0.00 0.00 0.00 75 1013.5
20260506070528 49 334 2.0 10.0 0.00 0.00 0.00 75 1013.4
20260506062025 48 40 4.0 11.0 0.00 0.00 0.00 74 1013.3
20260506061527 48 44 4.0 8.0 0.00 0.00 0.00 74 1013.3
20260506061029 48 28 2.0 8.0 0.00 0.00 0.00 75 1013.2
20260506060525 48 50 2.0 8.0 0.00 0.00 0.00 75 1013.2
20260506051016 47 17 4.0 8.0 0.00 0.00 0.00 78 1013.0
20260506050515 47 46 2.0 9.0 0.00 0.00 0.00 78 1012.9
20260506045013 47 13 3.0 12.0 0.00 0.00 0.00 78 1012.9
20260506044516 47 32 2.0 8.0 0.00 0.00 0.00 78 1012.9
20260506044010 47 342 3.0 11.0 0.00 0.00 0.00 78 1012.8
20260506043510 47 22 4.0 11.0 0.00 0.00 0.00 78 1012.9
20260506043010 48 28 2.0 9.0 0.00 0.00 0.00 77 1012.9
20260506042510 48 28 3.0 9.0 0.00 0.00 0.00 77 1012.8
20260506042010 48 21 1.0 8.0 0.00 0.00 0.00 77 1012.8
20260506041509 48 47 2.0 9.0 0.00 0.00 0.00 77 1012.8
20260506041007 48 23 2.0 9.0 0.00 0.00 0.00 77 1012.7
20260506040507 48 40 4.0 9.0 0.00 0.00 0.00 76 1012.6
20260506040005 48 48 3.0 7.0 0.00 0.00 0.00 76 1012.7
20260506035509 48 30 2.0 7.0 0.00 0.00 0.00 76 1012.6
20260506035004 48 34 2.0 6.0 0.00 0.00 0.00 75 1012.6
20260506034504 48 55 2.0 5.0 0.00 0.00 0.00 74 1012.5
20260506034004 49 36 2.0 5.0 0.00 0.00 0.00 74 1012.7
20260506033501 49 42 2.0 6.0 0.00 0.00 0.00 74 1012.6
20260506033100 49 48 2.0 8.0 0.00 0.00 0.00 75 1012.6
20260506032559 49 45 3.0 8.0 0.00 0.00 0.00 75 1012.7
20260506032059 49 36 3.0 7.0 0.00 0.00 0.00 75 1012.8
20260506031559 49 46 3.0 10.0 0.00 0.00 0.00 75 1012.7
20260506031100 49 45 4.0 10.0 0.00 0.00 0.00 76 1012.6
20260506030556 49 30 3.0 9.0 0.00 0.00 0.00 77 1012.6
20260506030057 50 355 3.0 7.0 0.00 0.00 0.00 77 1012.6
20260506025555 50 31 1.0 5.0 0.00 0.00 0.00 76 1012.7
20260506025055 50 28 1.0 5.0 0.00 0.00 0.00 76 1012.6
20260506024601 50 43 1.0 9.0 0.00 0.00 0.00 76 1012.7
20260506024053 50 38 3.0 9.0 0.00 0.00 0.00 77 1012.7
20260506023552 50 54 3.0 9.0 0.00 0.00 0.00 77 1012.7
20260506023106 50 38 2.0 7.0 0.00 0.00 0.00 77 1012.8
20260506022550 50 31 2.0 6.0 0.00 0.00 0.00 77 1012.8
20260506022053 50 78 1.0 6.0 0.00 0.00 0.00 77 1012.8
20260506021549 50 41 1.0 3.0 0.00 0.00 0.00 77 1012.9
20260506021049 50 43 0.0 5.0 0.00 0.00 0.00 77 1012.8
20260506020548 50 36 2.0 5.0 0.00 0.00 0.00 77 1012.8
20260506020054 50 35 2.0 5.0 0.00 0.00 0.00 77 1012.9
20260506015548 50 49 1.0 8.0 0.00 0.00 0.00 77 1012.9
20260506015047 50 72 2.0 8.0 0.00 0.00 0.00 76 1012.9
20260506014547 50 52 0.0 6.0 0.00 0.00 0.00 76 1012.9
20260506014048 50 36 3.0 10.0 0.00 0.00 0.00 76 1013.0
20260506013545 50 37 4.0 10.0 0.00 0.00 0.00 76 1012.9
20260506013052 50 82 1.0 7.0 0.00 0.00 0.00 76 1013.0
20260506012548 50 44 1.0 6.0 0.00 0.00 0.00 75 1013.1
20260506012046 51 34 2.0 6.0 0.00 0.00 0.00 75 1013.1
20260506011546 51 44 1.0 6.0 0.00 0.00 0.00 75 1013.2
20260506011046 51 85 1.0 4.0 0.00 0.00 0.00 75 1013.2
20260506010544 51 51 0.0 3.0 0.00 0.00 0.00 75 1013.2
20260506010042 51 54 0.0 5.0 0.00 0.00 0.00 74 1013.2
20260506005540 51 59 2.0 7.0 0.00 0.00 0.00 74 1013.2
20260506005040 51 90 2.0 7.0 0.00 0.00 0.00 74 1013.1
20260506004539 51 55 2.0 6.0 0.00 0.00 0.00 74 1013.1
20260506004039 51 38 1.0 6.0 0.00 0.00 0.00 74 1013.3
20260506003539 51 50 2.0 8.0 0.00 0.00 0.00 74 1013.2
20260506003039 51 25 2.0 8.0 0.00 0.00 0.00 73 1013.2
20260506002538 51 59 2.0 10.0 0.00 0.00 0.00 73 1013.3
20260506002037 51 36 4.0 10.0 0.00 0.00 0.00 74 1013.4
20260506001537 51 35 2.0 7.0 0.00 0.00 0.00 74 1013.3
20260506001037 51 90 3.0 9.0 0.00 0.00 0.00 73 1013.4
20260506000535 51 50 3.0 9.0 0.00 0.00 0.00 73 1013.4
20260506000036 51 27 3.0 10.0 0.00 0.00 0.00 73 1013.3
20260505235534 51 94 4.0 10.0 0.00 0.00 0.00 73 1013.4
20260505235035 51 41 2.0 11.0 0.00 0.00 0.00 73 1013.3
20260505234633 51 5 2.0 11.0 0.00 0.00 0.00 73 1013.3
20260505234033 52 40 2.0 10.0 0.00 0.00 0.00 73 1013.3
20260505233530 52 51 3.0 13.0 0.00 0.00 0.00 73 1013.2
20260505233030 52 58 4.0 10.0 0.00 0.00 0.00 74 1013.1
20260505232529 52 37 3.0 10.0 0.00 0.00 0.00 75 1013.2
20260505232028 52 53 2.0 10.0 0.00 0.00 0.00 75 1013.2
20260505231528 52 84 2.0 10.0 0.00 0.00 0.00 76 1013.3
20260505231027 52 107 1.0 10.0 0.00 0.00 0.00 79 1013.3
20260505230525 52 51 5.0 10.0 0.00 0.00 0.00 79 1013.3
20260505230024 52 45 3.0 8.0 0.00 0.00 0.00 80 1013.2
20260505225524 52 55 2.0 6.0 0.00 0.00 0.00 80 1013.3
20260505225027 52 61 1.0 6.0 0.00 0.00 0.00 79 1013.3
20260505224524 52 77 2.0 6.0 0.00 0.00 0.00 79 1013.2
20260505224023 53 55 1.0 5.0 0.00 0.00 0.00 79 1013.2
20260505223526 53 47 2.0 9.0 0.00 0.00 0.00 78 1013.3
20260505223026 53 39 3.0 9.0 0.00 0.00 0.00 78 1013.3
20260505222527 53 42 1.0 10.0 0.00 0.00 0.00 77 1013.2
20260505222023 53 66 2.0 10.0 0.00 0.00 0.00 77 1013.3
20260505221523 53 36 3.0 10.0 0.00 0.00 0.00 77 1013.3
20260505221023 54 80 4.0 10.0 0.00 0.00 0.00 77 1013.2
20260505220522 54 38 3.0 10.0 0.00 0.00 0.00 77 1013.3
20260505220035 54 36 4.0 10.0 0.00 0.00 0.00 76 1013.2
20260505215522 54 57 3.0 8.0 0.00 0.00 0.00 75 1013.2
20260505215022 54 42 3.0 9.0 0.00 0.00 0.00 74 1013.1
20260505214525 54 48 2.0 9.0 0.00 0.00 0.00 73 1013.0
20260505214022 54 44 2.0 5.0 0.00 0.00 0.00 72 1013.0
20260505213527 54 15 2.0 4.0 0.00 0.00 0.00 72 1013.0
20260505213021 54 100 0.0 3.0 0.00 0.00 0.00 72 1012.9
20260505212521 54 61 0.0 3.0 0.00 0.00 0.00 72 1012.9
20260505212025 54 60 0.0 3.0 0.00 0.00 0.00 72 1012.9
20260505211521 54 60 0.0 3.0 0.00 0.00 0.00 72 1012.9
20260505211024 54 88 1.0 3.0 0.00 0.00 0.00 72 1012.8
20260505210521 54 59 0.0 3.0 0.00 0.00 0.00 72 1012.9
20260505210020 54 143 0.0 2.0 0.00 0.00 0.00 72 1012.9
20260505205522 55 254 0.0 3.0 0.00 0.00 0.00 72 1012.8
20260505205022 55 188 0.0 5.0 0.00 0.00 0.00 72 1012.9
20260505204520 55 111 1.0 5.0 0.00 0.00 0.00 72 1012.8
20260505204019 55 55 1.0 6.0 0.00 0.00 0.00 71 1012.8
20260505203519 55 74 1.0 6.0 0.00 0.00 0.00 71 1012.9
20260505203020 56 71 0.0 6.0 0.00 0.00 0.00 70 1012.8
20260505202520 56 38 0.0 5.0 0.00 0.00 0.00 70 1012.7
20260505202019 56 91 0.0 5.0 0.00 0.00 0.00 69 1012.7
20260505201519 56 91 0.0 5.0 0.00 0.00 0.00 69 1012.6
20260505201019 56 98 0.0 6.0 0.00 0.00 0.00 69 1012.5
20260505200519 56 71 1.0 5.0 0.00 0.00 0.00 68 1012.4
20260505200031 57 59 0.0 4.0 0.00 0.00 0.00 68 1012.4
20260505195518 57 38 0.0 4.0 0.00 0.00 0.00 67 1012.3
20260505195018 57 84 1.0 4.0 0.00 0.00 0.00 65 1012.2
20260505194517 57 17 0.0 4.0 0.00 0.00 0.00 65 1012.2
20260505194018 57 355 0.0 3.0 0.00 0.00 0.00 64 1012.1
20260505193518 57 92 0.0 4.0 0.00 0.00 0.00 64 1012.0
20260505193017 57 59 0.0 4.0 0.00 0.00 0.00 63 1011.9
20260505192517 57 43 0.0 2.0 0.00 0.00 0.00 63 1011.9
20260505192017 58 49 0.0 1.0 0.00 0.00 0.00 63 1011.8
20260505191525 58 49 0.0 1.0 0.00 0.00 0.00 63 1011.8
20260505191016 58 49 0.0 1.0 0.00 0.00 0.00 64 1011.7
20260505190518 58 44 0.0 2.0 0.00 0.00 0.00 63 1011.7
20260505190117 58 44 0.0 2.0 0.00 0.00 0.00 63 1011.7
20260505185516 58 42 0.0 3.0 0.00 0.00 0.00 62 1011.8
20260505185016 58 42 0.0 3.0 0.00 0.00 0.00 62 1011.8
20260505184516 58 42 0.0 2.0 0.00 0.00 0.00 62 1011.7
20260505184016 58 42 0.0 3.0 0.00 0.00 0.00 62 1011.6
20260505183516 58 42 0.0 3.0 0.00 0.00 0.00 62 1011.5
20260505183020 58 42 1.0 3.0 0.00 0.00 0.00 62 1011.5
20260505182515 58 32 0.0 3.0 0.00 0.00 0.00 62 1011.6
20260505182015 59 57 0.0 3.0 0.00 0.00 0.00 61 1011.4
20260505181521 59 38 0.0 4.0 0.00 0.00 0.00 61 1011.5
20260505181014 59 51 1.0 4.0 0.00 0.00 0.00 61 1011.5
20260505180514 59 59 1.0 4.0 0.00 0.00 0.00 61 1011.5
20260505180014 59 71 1.0 4.0 0.00 0.00 0.00 61 1011.5
20260505175514 59 66 0.0 4.0 0.00 0.00 0.00 60 1011.5
20260505175015 59 68 0.0 2.0 0.00 0.00 0.00 60 1011.5
20260505174513 59 82 0.0 2.0 0.00 0.00 0.00 60 1011.5
20260505174013 59 80 0.0 4.0 0.00 0.00 0.00 60 1011.5
20260505173517 60 73 1.0 6.0 0.00 0.00 0.00 59 1011.5
20260505173014 60 84 1.0 6.0 0.00 0.00 0.00 59 1011.6
20260505172613 60 37 0.0 2.0 0.00 0.00 0.00 59 1011.6
20260505172015 60 43 0.0 6.0 0.00 0.00 0.00 58 1011.5
20260505171513 60 171 0.0 5.0 0.00 0.00 0.00 58 1011.5
20260505171013 60 239 0.0 5.0 0.00 0.00 0.00 58 1011.4
20260505170512 61 88 0.0 3.0 0.00 0.00 0.00 57 1011.5
20260505170014 61 13 0.0 4.0 0.00 0.00 0.00 58 1011.6
20260505165511 61 34 0.0 5.0 0.00 0.00 0.00 57 1011.5
20260505165011 61 44 1.0 3.0 0.00 0.00 0.00 57 1011.5
20260505164511 61 44 0.0 4.0 0.00 0.00 0.00 57 1011.5
20260505164010 61 46 0.0 5.0 0.00 0.00 0.00 57 1011.4
20260505163510 62 57 1.0 5.0 0.00 0.00 0.00 56 1011.4
20260505163010 62 42 2.0 3.0 0.00 0.00 0.00 56 1011.5
20260505162610 62 64 0.0 5.0 0.00 0.00 0.00 56 1011.5
20260505162008 62 81 0.0 5.0 0.00 0.00 0.00 56 1011.4
20260505161523 62 78 0.0 3.0 0.00 0.00 0.00 56 1011.5
20260505161007 62 58 0.0 3.0 0.00 0.00 0.00 56 1011.5
20260505160510 62 38 0.0 2.0 0.00 0.00 0.00 56 1011.5
20260505153004 62 94 1.0 4.0 0.00 0.00 0.00 56 1011.7
20260505152501 62 22 0.0 4.0 0.00 0.00 0.00 55 1011.8
20260505152001 62 22 1.0 5.0 0.00 0.00 0.00 55 1011.8
20260505151503 62 49 1.0 5.0 0.00 0.00 0.00 55 1011.8
20260505151001 62 59 2.0 5.0 0.00 0.00 0.00 55 1011.8
20260505150502 63 45 2.0 5.0 0.00 0.00 0.00 55 1011.8
20260505140556 65 52 1.0 5.0 0.00 0.00 0.00 54 1012.0
20260505124550 64 64 3.0 8.0 0.00 0.00 0.00 54 1012.6
20260505124044 63 49 2.0 7.0 0.00 0.00 0.00 55 1012.5
20260505123545 64 14 2.0 7.0 0.00 0.00 0.00 55 1012.5
20260505123044 63 101 0.0 6.0 0.00 0.00 0.00 56 1012.5
20260505122545 63 43 2.0 6.0 0.00 0.00 0.00 56 1012.6
20260505122043 64 33 3.0 6.0 0.00 0.00 0.00 55 1012.6
20260505121544 64 53 3.0 6.0 0.00 0.00 0.00 55 1012.6
20260505121043 64 69 0.0 4.0 0.00 0.00 0.00 55 1012.5
20260505120543 64 65 0.0 7.0 0.00 0.00 0.00 57 1012.6
20260505120043 64 97 2.0 7.0 0.00 0.00 0.00 57 1012.6
20260505115542 63 40 3.0 8.0 0.00 0.00 0.00 58 1012.5
20260505115042 63 41 3.0 8.0 0.00 0.00 0.00 59 1012.6
20260505114542 63 268 2.0 8.0 0.00 0.00 0.00 58 1012.5
20260505114041 63 355 3.0 7.0 0.00 0.00 0.00 58 1012.7
20260505113539 63 44 2.0 9.0 0.00 0.00 0.00 58 1012.7
20260505113041 63 61 3.0 10.0 0.00 0.00 0.00 57 1012.7
20260505112540 63 38 3.0 8.0 0.00 0.00 0.00 57 1012.9
20260505112039 63 53 4.0 9.0 0.00 0.00 0.00 57 1012.8
20260505111540 63 27 3.0 9.0 0.00 0.00 0.00 58 1012.9
20260505111040 63 42 2.0 9.0 0.00 0.00 0.00 58 1012.9
20260505110538 63 65 2.0 7.0 0.00 0.00 0.00 58 1012.9
20260505102032 64 28 4.0 8.0 0.00 0.00 0.00 59 1013.1
20260505101537 63 34 3.0 6.0 0.00 0.00 0.00 61 1013.1
20260505101030 63 188 1.0 6.0 0.00 0.00 0.00 62 1013.2
20260505100528 62 207 1.0 5.0 0.00 0.00 0.00 63 1013.2
20260505100027 61 26 0.0 8.0 0.00 0.00 0.00 66 1013.3
20260505095526 60 52 2.0 8.0 0.00 0.00 0.00 66 1013.2
20260505095024 60 57 2.0 8.0 0.00 0.00 0.00 67 1013.1
20260505094524 60 35 4.0 8.0 0.00 0.00 0.00 66 1013.3
20260505094022 59 25 3.0 7.0 0.00 0.00 0.00 68 1013.2
20260505093520 59 29 3.0 8.0 0.00 0.00 0.00 69 1013.2
20260505093020 58 51 4.0 8.0 0.00 0.00 0.00 68 1013.2
20260505092519 58 36 2.0 6.0 0.00 0.00 0.00 69 1013.2
20260505092019 58 36 2.0 6.0 0.00 0.00 0.00 70 1013.2
20260505091518 58 29 2.0 8.0 0.00 0.00 0.00 70 1013.3
20260505091018 58 340 4.0 8.0 0.00 0.00 0.00 70 1013.4
20260505090517 58 27 3.0 10.0 0.00 0.00 0.00 70 1013.4
20260505090033 58 78 4.0 10.0 0.00 0.00 0.00 70 1013.4
20260505085513 58 54 3.0 10.0 0.00 0.00 0.00 72 1013.6
20260505085012 57 49 0.0 5.0 0.00 0.00 0.00 74 1013.5
20260505084511 56 28 1.0 6.0 0.00 0.00 0.00 74 1013.5